N99TP CYVR-KGEG

Flight info

Callsign N99TP
Flight time 1h 43m
Altitude 13000
Route YVR DCT DOAME
Aircraft HU16/M-SDF/S

Departure

Time 2026-05-06 07:46
Airport Vancouver International Airport (CYVR)

Arrival

Time 2026-05-06 09:29
Airport Spokane International Airport (KGEG)
Time Latitude Longitude Altitude Speed Heading
2026-05-06 07:19 49.17925 -123.17131 24 ft 0 kts 359°
2026-05-06 07:29 49.17928 -123.17131 28 ft 2 kts 359°
2026-05-06 07:29 49.17954 -123.17132 25 ft 6 kts 358°
2026-05-06 07:29 49.18009 -123.17134 25 ft 10 kts 359°
2026-05-06 07:30 49.18087 -123.17135 26 ft 13 kts
2026-05-06 07:30 49.18110 -123.17134 26 ft 0 kts
2026-05-06 07:34 49.18122 -123.17140 26 ft 6 kts 311°
2026-05-06 07:34 49.18095 -123.17193 24 ft 8 kts 196°
2026-05-06 07:35 49.18048 -123.17210 26 ft 7 kts 190°
2026-05-06 07:35 49.17994 -123.17219 27 ft 8 kts 184°
2026-05-06 07:35 49.17956 -123.17208 28 ft 6 kts 131°
2026-05-06 07:35 49.17950 -123.17132 24 ft 8 kts 88°
2026-05-06 07:36 49.17936 -123.17062 27 ft 5 kts 133°
2026-05-06 07:36 49.17919 -123.17025 26 ft 0 kts 96°
2026-05-06 07:38 49.17919 -123.17024 26 ft 1 kts 96°
2026-05-06 07:39 49.17903 -123.16986 24 ft 7 kts 140°
2026-05-06 07:39 49.17877 -123.16952 26 ft 3 kts 140°
2026-05-06 07:39 49.17856 -123.16927 27 ft 5 kts 151°
2026-05-06 07:39 49.17815 -123.16914 26 ft 7 kts 172°
2026-05-06 07:40 49.17776 -123.16910 24 ft 4 kts 180°
2026-05-06 07:40 49.17755 -123.16910 25 ft 3 kts 179°
2026-05-06 07:40 49.17735 -123.16910 18 ft 5 kts 180°
2026-05-06 07:40 49.17705 -123.16910 7 ft 5 kts 180°
2026-05-06 07:41 49.17679 -123.16907 4 ft 5 kts 177°
2026-05-06 07:41 49.17650 -123.16928 4 ft 5 kts 255°
2026-05-06 07:41 49.17648 -123.16992 4 ft 7 kts 262°
2026-05-06 07:41 49.17644 -123.17053 4 ft 5 kts 272°
2026-05-06 07:42 49.17648 -123.17140 4 ft 10 kts 276°
2026-05-06 07:42 49.17653 -123.17246 4 ft 10 kts 275°
2026-05-06 07:42 49.17662 -123.17351 4 ft 10 kts 283°
2026-05-06 07:42 49.17681 -123.17449 4 ft 10 kts 289°
2026-05-06 07:43 49.17705 -123.17544 4 ft 10 kts 292°
2026-05-06 07:43 49.17728 -123.17634 4 ft 9 kts 279°
2026-05-06 07:43 49.17741 -123.17731 4 ft 10 kts 283°
2026-05-06 07:43 49.17756 -123.17830 4 ft 9 kts 278°
2026-05-06 07:44 49.17743 -123.17902 4 ft 7 kts 208°
2026-05-06 07:44 49.17695 -123.17906 4 ft 7 kts 137°
2026-05-06 07:44 49.17667 -123.17852 4 ft 5 kts 111°
2026-05-06 07:44 49.17661 -123.17824 4 ft 2 kts 100°
2026-05-06 07:45 49.17658 -123.17807 4 ft 1 kts 101°
2026-05-06 07:45 49.17655 -123.17793 4 ft 1 kts 101°
2026-05-06 07:45 49.17653 -123.17779 4 ft 1 kts 100°
2026-05-06 07:45 49.17648 -123.17737 5 ft 15 kts 99°
2026-05-06 07:46 49.17604 -123.17224 7 ft 77 kts 96°
2026-05-06 07:46 49.17513 -123.16238 163 ft 102 kts 102°
2026-05-06 07:46 49.17141 -123.15307 418 ft 110 kts 138°
2026-05-06 07:46 49.16399 -123.14811 654 ft 120 kts 159°
2026-05-06 07:47 49.15652 -123.14482 1153 ft 107 kts 165°
2026-05-06 07:47 49.14912 -123.14159 1353 ft 114 kts 163°
2026-05-06 07:47 49.14120 -123.13794 1424 ft 123 kts 163°
2026-05-06 07:47 49.13346 -123.13298 1601 ft 121 kts 142°
2026-05-06 07:48 49.12763 -123.12380 1789 ft 120 kts 136°
2026-05-06 07:48 49.12293 -123.11349 1955 ft 121 kts 108°
2026-05-06 07:48 49.12089 -123.10111 2132 ft 120 kts 108°
2026-05-06 07:48 49.11855 -123.08890 2309 ft 120 kts 108°
2026-05-06 07:49 49.11623 -123.07666 2488 ft 120 kts 108°
2026-05-06 07:49 49.11391 -123.06452 2661 ft 119 kts 109°
2026-05-06 07:49 49.11157 -123.05245 2836 ft 119 kts 108°
2026-05-06 07:49 49.10918 -123.04041 3010 ft 119 kts 108°
2026-05-06 07:50 49.10671 -123.02843 3187 ft 118 kts 108°
2026-05-06 07:50 49.10429 -123.01651 3358 ft 117 kts 108°
2026-05-06 07:50 49.10177 -123.00470 3536 ft 117 kts 108°
2026-05-06 07:50 49.09928 -122.99300 3695 ft 115 kts 109°
2026-05-06 07:51 49.09681 -122.98145 3860 ft 114 kts 109°
2026-05-06 07:51 49.09443 -122.97005 4023 ft 112 kts 108°
2026-05-06 07:51 49.09203 -122.95877 4199 ft 112 kts 108°
2026-05-06 07:51 49.08963 -122.94756 4367 ft 111 kts 108°
2026-05-06 07:52 49.08718 -122.93650 4542 ft 110 kts 108°
2026-05-06 07:52 49.08470 -122.92559 4712 ft 108 kts 108°
2026-05-06 07:52 49.08481 -122.91445 4880 ft 106 kts 82°
2026-05-06 07:52 49.08298 -122.90401 5042 ft 104 kts 123°
2026-05-06 07:53 49.07943 -122.89451 5213 ft 102 kts 116°
2026-05-06 07:53 49.07602 -122.88516 5376 ft 100 kts 120°
2026-05-06 07:53 49.07263 -122.87615 5541 ft 96 kts 119°
2026-05-06 07:53 49.06929 -122.86770 5701 ft 90 kts 120°
2026-05-06 07:54 49.06612 -122.85957 5871 ft 90 kts 120°
2026-05-06 07:54 49.06286 -122.85137 6042 ft 92 kts 120°
2026-05-06 07:54 49.05953 -122.84302 6219 ft 93 kts 120°
2026-05-06 07:54 49.05617 -122.83456 6397 ft 94 kts 121°
2026-05-06 07:55 49.05276 -122.82602 6563 ft 95 kts 119°
2026-05-06 07:55 49.04930 -122.81743 6711 ft 98 kts 120°
2026-05-06 07:55 49.04561 -122.80824 6812 ft 106 kts 118°
2026-05-06 07:55 49.04186 -122.79801 6901 ft 115 kts 117°
2026-05-06 07:56 49.03734 -122.78674 6851 ft 133 kts 123°
2026-05-06 07:56 49.03185 -122.77526 6972 ft 134 kts 126°
2026-05-06 07:56 49.02659 -122.76373 7114 ft 132 kts 116°
2026-05-06 07:56 49.02251 -122.75130 7247 ft 132 kts 118°
2026-05-06 07:57 49.01786 -122.73922 7423 ft 131 kts 119°
2026-05-06 07:57 49.01330 -122.72756 7643 ft 126 kts 120°
2026-05-06 07:57 49.00884 -122.71641 7856 ft 121 kts 119°
2026-05-06 07:57 49.00454 -122.70563 8071 ft 118 kts 120°
2026-05-06 07:58 49.00031 -122.69506 8245 ft 118 kts 120°
2026-05-06 07:58 48.99599 -122.68433 8393 ft 120 kts 120°
2026-05-06 07:58 48.99157 -122.67335 8536 ft 123 kts 120°
2026-05-06 07:58 48.98708 -122.66215 8693 ft 125 kts 119°
2026-05-06 07:59 48.98251 -122.65081 8845 ft 127 kts 120°
2026-05-06 07:59 48.97791 -122.63935 8999 ft 128 kts 120°
2026-05-06 07:59 48.97324 -122.62780 9154 ft 129 kts 119°
2026-05-06 07:59 48.96862 -122.61628 9310 ft 129 kts 119°
2026-05-06 08:00 48.96394 -122.60467 9466 ft 129 kts 119°
2026-05-06 08:00 48.95925 -122.59306 9625 ft 129 kts 120°
2026-05-06 08:00 48.95460 -122.58150 9780 ft 128 kts 118°
2026-05-06 08:00 48.94995 -122.56996 9932 ft 128 kts 118°
2026-05-06 08:01 48.94533 -122.55848 10082 ft 127 kts 118°
2026-05-06 08:01 48.94072 -122.54709 10221 ft 126 kts 118°
2026-05-06 08:01 48.93615 -122.53566 10369 ft 127 kts 117°
2026-05-06 08:01 48.93150 -122.52416 10506 ft 128 kts 117°
2026-05-06 08:02 48.92683 -122.51257 10649 ft 129 kts 117°
2026-05-06 08:02 48.92212 -122.50098 10793 ft 129 kts 117°
2026-05-06 08:02 48.91744 -122.48935 10937 ft 129 kts 117°
2026-05-06 08:02 48.91268 -122.47761 11016 ft 136 kts 117°
2026-05-06 08:03 48.90752 -122.46484 11008 ft 147 kts 117°
2026-05-06 08:03 48.90202 -122.45129 11009 ft 155 kts 117°
2026-05-06 08:03 48.89628 -122.43716 11020 ft 160 kts 118°
2026-05-06 08:03 48.89036 -122.42259 11016 ft 164 kts 118°
2026-05-06 08:04 48.88433 -122.40770 11010 ft 167 kts 118°
2026-05-06 08:04 48.87820 -122.39262 11007 ft 169 kts 118°
2026-05-06 08:04 48.87199 -122.37735 11009 ft 171 kts 118°
2026-05-06 08:04 48.86584 -122.36223 11007 ft 167 kts 118°
2026-05-06 08:05 48.85986 -122.34749 11000 ft 162 kts 118°
2026-05-06 08:05 48.85417 -122.33353 10988 ft 149 kts 118°
2026-05-06 08:05 48.84879 -122.32026 10987 ft 147 kts 117°
2026-05-06 08:05 48.84347 -122.30719 10987 ft 145 kts 117°
2026-05-06 08:06 48.83822 -122.29425 10989 ft 144 kts 117°
2026-05-06 08:06 48.83294 -122.28133 10988 ft 145 kts 117°
2026-05-06 08:06 48.82764 -122.26830 10987 ft 146 kts 117°
2026-05-06 08:06 48.82229 -122.25519 10989 ft 147 kts 117°
2026-05-06 08:07 48.81690 -122.24197 10989 ft 148 kts 118°
2026-05-06 08:07 48.81147 -122.22870 10989 ft 148 kts 117°
2026-05-06 08:07 48.80606 -122.21540 10993 ft 149 kts 117°
2026-05-06 08:07 48.80059 -122.20204 10993 ft 149 kts 117°
2026-05-06 08:08 48.79513 -122.18874 10995 ft 149 kts 117°
2026-05-06 08:08 48.78968 -122.17549 10989 ft 148 kts 117°
2026-05-06 08:08 48.78424 -122.16226 10991 ft 149 kts 117°
2026-05-06 08:08 48.77877 -122.14896 10988 ft 149 kts 117°
2026-05-06 08:09 48.77332 -122.13570 10988 ft 149 kts 117°
2026-05-06 08:09 48.76785 -122.12240 10986 ft 149 kts 117°
2026-05-06 08:09 48.76240 -122.10916 10985 ft 148 kts 117°
2026-05-06 08:09 48.75693 -122.09592 10984 ft 148 kts 117°
2026-05-06 08:10 48.75147 -122.08274 10985 ft 147 kts 117°
2026-05-06 08:10 48.74607 -122.06959 10984 ft 147 kts 117°
2026-05-06 08:10 48.74067 -122.05642 10983 ft 148 kts 117°
2026-05-06 08:10 48.73526 -122.04325 10981 ft 147 kts 117°
2026-05-06 08:11 48.72985 -122.03006 10981 ft 148 kts 117°
2026-05-06 08:11 48.72443 -122.01683 10981 ft 149 kts 117°
2026-05-06 08:11 48.71898 -122.00351 10983 ft 149 kts 117°
2026-05-06 08:11 48.71355 -121.99004 11024 ft 150 kts 116°
2026-05-06 08:12 48.70812 -121.97606 10987 ft 156 kts 116°
2026-05-06 08:12 48.70278 -121.96202 10989 ft 152 kts 112°
2026-05-06 08:12 48.69953 -121.94699 10980 ft 149 kts 102°
2026-05-06 08:12 48.69698 -121.93213 10975 ft 144 kts 101°
2026-05-06 08:13 48.69442 -121.91766 10975 ft 142 kts 101°
2026-05-06 08:13 48.69177 -121.90333 10974 ft 141 kts 101°
2026-05-06 08:13 48.68902 -121.88908 10974 ft 141 kts 101°
2026-05-06 08:13 48.68624 -121.87483 10976 ft 142 kts 101°
2026-05-06 08:14 48.68344 -121.86038 10975 ft 145 kts 101°
2026-05-06 08:14 48.68059 -121.84575 10977 ft 146 kts 101°
2026-05-06 08:14 48.67761 -121.83120 10973 ft 145 kts 102°
2026-05-06 08:14 48.67472 -121.81684 10974 ft 142 kts 102°
2026-05-06 08:15 48.67180 -121.80268 10974 ft 142 kts 102°
2026-05-06 08:15 48.66892 -121.78856 10980 ft 141 kts 100°
2026-05-06 08:15 48.66603 -121.77422 10979 ft 144 kts 101°
2026-05-06 08:15 48.66308 -121.75970 10978 ft 145 kts 101°
2026-05-06 08:16 48.66015 -121.74530 10979 ft 142 kts 101°
2026-05-06 08:16 48.65724 -121.73108 10980 ft 142 kts 101°
2026-05-06 08:16 48.65431 -121.71678 10978 ft 143 kts 101°
2026-05-06 08:16 48.65113 -121.70254 10977 ft 143 kts 103°
2026-05-06 08:17 48.64791 -121.68832 10980 ft 143 kts 103°
2026-05-06 08:17 48.64469 -121.67405 10979 ft 144 kts 103°
2026-05-06 08:17 48.64144 -121.65973 10981 ft 145 kts 103°
2026-05-06 08:17 48.63821 -121.64539 10976 ft 143 kts 103°
2026-05-06 08:18 48.63502 -121.63121 10973 ft 142 kts 103°
2026-05-06 08:18 48.63187 -121.61726 10972 ft 140 kts 103°
2026-05-06 08:18 48.62873 -121.60329 10972 ft 141 kts 103°
2026-05-06 08:18 48.62553 -121.58925 10972 ft 142 kts 103°
2026-05-06 08:19 48.62234 -121.57512 10963 ft 143 kts 103°
2026-05-06 08:19 48.61912 -121.56091 10965 ft 144 kts 103°
2026-05-06 08:19 48.61587 -121.54659 10968 ft 145 kts 103°
2026-05-06 08:19 48.61262 -121.53211 10971 ft 147 kts 103°
2026-05-06 08:20 48.60927 -121.51748 10970 ft 147 kts 103°
2026-05-06 08:20 48.60599 -121.50288 10971 ft 147 kts 103°
2026-05-06 08:20 48.60266 -121.48828 10971 ft 148 kts 103°
2026-05-06 08:20 48.59930 -121.47354 10973 ft 150 kts 103°
2026-05-06 08:21 48.59593 -121.45869 10971 ft 151 kts 103°
2026-05-06 08:21 48.59253 -121.44374 10970 ft 150 kts 103°
2026-05-06 08:21 48.58915 -121.42887 10970 ft 150 kts 103°
2026-05-06 08:21 48.58576 -121.41407 10971 ft 149 kts 103°
2026-05-06 08:22 48.58241 -121.39929 10967 ft 149 kts 103°
2026-05-06 08:22 48.57904 -121.38455 10970 ft 149 kts 103°
2026-05-06 08:22 48.57566 -121.36976 10974 ft 150 kts 103°
2026-05-06 08:22 48.57227 -121.35493 10971 ft 149 kts 103°
2026-05-06 08:23 48.56887 -121.34020 10968 ft 148 kts 103°
2026-05-06 08:23 48.56552 -121.32551 10968 ft 148 kts 103°
2026-05-06 08:23 48.56216 -121.31080 10970 ft 149 kts 103°
2026-05-06 08:23 48.55877 -121.29601 10963 ft 149 kts 103°
2026-05-06 08:24 48.55540 -121.28114 10959 ft 151 kts 103°
2026-05-06 08:24 48.55194 -121.26617 10961 ft 153 kts 103°
2026-05-06 08:24 48.54849 -121.25088 10961 ft 155 kts 103°
2026-05-06 08:24 48.54494 -121.23563 10963 ft 154 kts 103°
2026-05-06 08:25 48.54144 -121.22043 10964 ft 154 kts 103°
2026-05-06 08:25 48.53789 -121.20509 10964 ft 155 kts 104°
2026-05-06 08:25 48.53432 -121.18967 10962 ft 157 kts 104°
2026-05-06 08:25 48.53074 -121.17407 10964 ft 158 kts 104°
2026-05-06 08:26 48.52714 -121.15843 10961 ft 158 kts 104°
2026-05-06 08:26 48.52352 -121.14291 10948 ft 155 kts 105°
2026-05-06 08:26 48.52005 -121.12794 10948 ft 149 kts 104°
2026-05-06 08:26 48.51667 -121.11330 10943 ft 147 kts 104°
2026-05-06 08:27 48.51335 -121.09886 10944 ft 146 kts 104°
2026-05-06 08:27 48.51003 -121.08447 10940 ft 145 kts 104°
2026-05-06 08:27 48.50672 -121.07015 10937 ft 145 kts 104°
2026-05-06 08:27 48.50343 -121.05589 10939 ft 144 kts 104°
2026-05-06 08:28 48.50016 -121.04164 10940 ft 144 kts 104°
2026-05-06 08:28 48.49668 -121.02720 10945 ft 149 kts 104°
2026-05-06 08:28 48.49331 -121.01250 10937 ft 150 kts 105°
2026-05-06 08:28 48.49004 -120.99822 10993 ft 140 kts 103°
2026-05-06 08:29 48.48693 -120.98452 10993 ft 138 kts 102°
2026-05-06 08:29 48.48374 -120.97077 10990 ft 140 kts 104°
2026-05-06 08:29 48.48052 -120.95715 10993 ft 137 kts 103°
2026-05-06 08:29 48.47735 -120.94372 10992 ft 135 kts 103°
2026-05-06 08:30 48.47424 -120.93045 10995 ft 134 kts 103°
2026-05-06 08:30 48.47114 -120.91722 10994 ft 134 kts 103°
2026-05-06 08:30 48.46801 -120.90394 10997 ft 136 kts 103°
2026-05-06 08:30 48.46479 -120.89026 11002 ft 142 kts 103°
2026-05-06 08:31 48.46151 -120.87606 11000 ft 148 kts 103°
2026-05-06 08:31 48.45798 -120.86113 11007 ft 155 kts 103°
2026-05-06 08:31 48.45443 -120.84562 11004 ft 157 kts 104°
2026-05-06 08:31 48.45083 -120.83019 11008 ft 157 kts 104°
2026-05-06 08:32 48.44721 -120.81469 11005 ft 157 kts 104°
2026-05-06 08:32 48.44359 -120.79928 11004 ft 157 kts 104°
2026-05-06 08:32 48.43995 -120.78382 11001 ft 156 kts 104°
2026-05-06 08:32 48.43633 -120.76840 10998 ft 157 kts 104°
2026-05-06 08:33 48.43272 -120.75308 10997 ft 155 kts 103°
2026-05-06 08:33 48.42918 -120.73793 11005 ft 153 kts 104°
2026-05-06 08:33 48.42567 -120.72295 11003 ft 151 kts 103°
2026-05-06 08:33 48.42210 -120.70799 10995 ft 152 kts 104°
2026-05-06 08:34 48.41860 -120.69304 11000 ft 152 kts 103°
2026-05-06 08:34 48.41148 -120.66284 11000 ft 153 kts 103°
2026-05-06 08:34 48.40799 -120.64780 10996 ft 152 kts 103°
2026-05-06 08:35 48.40439 -120.63281 10999 ft 153 kts 104°
2026-05-06 08:35 48.40082 -120.61772 11004 ft 154 kts 103°
2026-05-06 08:35 48.39730 -120.60227 11003 ft 159 kts 104°
2026-05-06 08:35 48.39349 -120.58670 10991 ft 157 kts 104°
2026-05-06 08:36 48.38984 -120.57139 10996 ft 156 kts 104°
2026-05-06 08:36 48.38624 -120.55612 10995 ft 154 kts 104°
2026-05-06 08:36 48.38263 -120.54108 10996 ft 153 kts 104°
2026-05-06 08:36 48.37906 -120.52599 10987 ft 153 kts 104°
2026-05-06 08:37 48.37551 -120.51099 10986 ft 152 kts 103°
2026-05-06 08:37 48.37196 -120.49580 10988 ft 156 kts 104°
2026-05-06 08:37 48.36824 -120.48051 10994 ft 156 kts 105°
2026-05-06 08:37 48.36460 -120.46521 10992 ft 155 kts 105°
2026-05-06 08:38 48.36097 -120.45001 10993 ft 154 kts 105°
2026-05-06 08:38 48.35736 -120.43480 10990 ft 155 kts 105°
2026-05-06 08:38 48.35367 -120.41978 10989 ft 152 kts 106°
2026-05-06 08:38 48.35015 -120.40484 10989 ft 152 kts 105°
2026-05-06 08:39 48.34663 -120.38991 10988 ft 152 kts 105°
2026-05-06 08:39 48.34305 -120.37498 10989 ft 152 kts 105°
2026-05-06 08:39 48.33948 -120.36003 10984 ft 152 kts 105°
2026-05-06 08:39 48.33591 -120.34513 10984 ft 152 kts 105°
2026-05-06 08:40 48.33234 -120.33022 10978 ft 151 kts 105°
2026-05-06 08:40 48.32888 -120.31552 10979 ft 148 kts 105°
2026-05-06 08:40 48.32537 -120.30097 10975 ft 149 kts 106°
2026-05-06 08:40 48.32184 -120.28645 10973 ft 148 kts 105°
2026-05-06 08:41 48.31836 -120.27201 10971 ft 147 kts 105°
2026-05-06 08:41 48.31491 -120.25761 10974 ft 147 kts 105°
2026-05-06 08:41 48.31141 -120.24308 10974 ft 149 kts 105°
2026-05-06 08:41 48.30789 -120.22846 10973 ft 149 kts 105°
2026-05-06 08:42 48.30438 -120.21385 10977 ft 149 kts 105°
2026-05-06 08:42 48.30086 -120.19928 10979 ft 148 kts 105°
2026-05-06 08:42 48.29737 -120.18477 10981 ft 148 kts 105°
2026-05-06 08:42 48.29390 -120.17016 10969 ft 149 kts 105°
2026-05-06 08:43 48.29039 -120.15566 10970 ft 148 kts 105°
2026-05-06 08:43 48.28685 -120.14123 10957 ft 147 kts 105°
2026-05-06 08:43 48.28345 -120.12731 10994 ft 138 kts 105°
2026-05-06 08:43 48.28019 -120.11378 10991 ft 139 kts 105°
2026-05-06 08:44 48.27687 -120.09996 10989 ft 141 kts 105°
2026-05-06 08:44 48.27351 -120.08617 10996 ft 141 kts 105°
2026-05-06 08:44 48.27013 -120.07219 11008 ft 144 kts 105°
2026-05-06 08:44 48.26668 -120.05798 11003 ft 145 kts 105°
2026-05-06 08:45 48.26322 -120.04368 11016 ft 148 kts 107°
2026-05-06 08:45 48.25969 -120.02921 11006 ft 148 kts 107°
2026-05-06 08:45 48.25615 -120.01466 11002 ft 150 kts 107°
2026-05-06 08:45 48.25258 -119.99994 11007 ft 151 kts 106°
2026-05-06 08:46 48.24899 -119.98508 11003 ft 152 kts 107°
2026-05-06 08:46 48.24535 -119.97024 11006 ft 152 kts 107°
2026-05-06 08:46 48.24173 -119.95535 10998 ft 153 kts 106°
2026-05-06 08:46 48.23809 -119.94044 10996 ft 152 kts 106°
2026-05-06 08:47 48.23444 -119.92554 10999 ft 153 kts 106°
2026-05-06 08:47 48.23078 -119.91061 10999 ft 153 kts 106°
2026-05-06 08:47 48.22715 -119.89569 10998 ft 152 kts 106°
2026-05-06 08:47 48.22351 -119.88086 10999 ft 152 kts 106°
2026-05-06 08:48 48.21987 -119.86597 10996 ft 153 kts 106°
2026-05-06 08:48 48.21619 -119.85091 10996 ft 155 kts 106°
2026-05-06 08:48 48.21247 -119.83578 10997 ft 155 kts 106°
2026-05-06 08:48 48.20878 -119.82067 11000 ft 155 kts 106°
2026-05-06 08:49 48.20506 -119.80551 11002 ft 155 kts 106°
2026-05-06 08:49 48.20134 -119.79040 11001 ft 154 kts 106°
2026-05-06 08:49 48.19765 -119.77537 10996 ft 154 kts 106°
2026-05-06 08:49 48.19398 -119.76035 10997 ft 154 kts 106°
2026-05-06 08:50 48.19028 -119.74532 10998 ft 154 kts 106°
2026-05-06 08:50 48.18660 -119.73033 10996 ft 153 kts 106°
2026-05-06 08:50 48.18290 -119.71539 10997 ft 153 kts 106°
2026-05-06 08:50 48.17922 -119.70042 10996 ft 154 kts 106°
2026-05-06 08:51 48.17554 -119.68546 10995 ft 154 kts 106°
2026-05-06 08:51 48.17184 -119.67049 10996 ft 154 kts 106°
2026-05-06 08:51 48.16813 -119.65550 10997 ft 154 kts 106°
2026-05-06 08:51 48.16442 -119.64054 10998 ft 153 kts 106°
2026-05-06 08:52 48.16072 -119.62559 10996 ft 153 kts 106°
2026-05-06 08:52 48.15703 -119.61065 10998 ft 154 kts 106°
2026-05-06 08:52 48.15331 -119.59567 10997 ft 154 kts 106°
2026-05-06 08:52 48.14962 -119.58071 10998 ft 154 kts 106°
2026-05-06 08:53 48.14590 -119.56575 11003 ft 154 kts 106°
2026-05-06 08:53 48.14219 -119.55078 11003 ft 153 kts 106°
2026-05-06 08:53 48.13847 -119.53585 11002 ft 153 kts 106°
2026-05-06 08:53 48.13478 -119.52096 11001 ft 153 kts 106°
2026-05-06 08:54 48.13108 -119.50608 11006 ft 153 kts 105°
2026-05-06 08:54 48.12777 -119.49280 11007 ft 152 kts 105°
2026-05-06 08:54 48.12402 -119.47779 11002 ft 151 kts 105°
2026-05-06 08:54 48.12037 -119.46310 11001 ft 151 kts 105°
2026-05-06 08:55 48.11673 -119.44846 10993 ft 149 kts 105°
2026-05-06 08:55 48.11312 -119.43397 10995 ft 149 kts 105°
2026-05-06 08:55 48.10948 -119.41942 10996 ft 150 kts 105°
2026-05-06 08:55 48.10584 -119.40474 10996 ft 151 kts 105°
2026-05-06 08:56 48.10235 -119.38998 10993 ft 151 kts 104°
2026-05-06 08:56 48.09871 -119.37527 10994 ft 152 kts 110°
2026-05-06 08:56 48.09168 -119.36355 10989 ft 158 kts 151°
2026-05-06 08:56 48.08244 -119.35506 10984 ft 155 kts 133°
2026-05-06 08:57 48.07662 -119.34194 10991 ft 151 kts 110°
2026-05-06 08:57 48.07203 -119.32781 11004 ft 152 kts 110°
2026-05-06 08:57 48.06759 -119.31343 11007 ft 153 kts 109°
2026-05-06 08:57 48.06324 -119.29881 11010 ft 155 kts 109°
2026-05-06 08:58 48.05888 -119.28411 11007 ft 155 kts 108°
2026-05-06 08:58 48.05454 -119.26936 11006 ft 155 kts 108°
2026-05-06 08:58 48.05019 -119.25465 11007 ft 155 kts 108°
2026-05-06 08:58 48.04584 -119.23994 11004 ft 155 kts 109°
2026-05-06 08:59 48.04149 -119.22522 11008 ft 155 kts 108°
2026-05-06 08:59 48.03715 -119.21051 11008 ft 155 kts 109°
2026-05-06 08:59 48.03281 -119.19583 11008 ft 155 kts 108°
2026-05-06 08:59 48.02846 -119.18112 11009 ft 155 kts 109°
2026-05-06 09:00 48.02411 -119.16639 11007 ft 155 kts 108°
2026-05-06 09:00 48.01976 -119.15166 11008 ft 156 kts 109°
2026-05-06 09:00 48.01538 -119.13690 11007 ft 156 kts 108°
2026-05-06 09:00 48.01104 -119.12219 11007 ft 155 kts 108°
2026-05-06 09:01 48.00668 -119.10748 11009 ft 155 kts 108°
2026-05-06 09:01 48.00233 -119.09275 11007 ft 156 kts 108°
2026-05-06 09:01 47.99797 -119.07802 11008 ft 155 kts 108°
2026-05-06 09:01 47.99361 -119.06331 11007 ft 155 kts 108°
2026-05-06 09:02 47.98926 -119.04861 11008 ft 155 kts 108°
2026-05-06 09:02 47.98490 -119.03388 11007 ft 155 kts 108°
2026-05-06 09:02 47.98055 -119.01916 11007 ft 156 kts 108°
2026-05-06 09:02 47.97621 -119.00450 11006 ft 154 kts 108°
2026-05-06 09:03 47.97194 -118.98991 11010 ft 154 kts 107°
2026-05-06 09:03 47.96780 -118.97523 11010 ft 154 kts 107°
2026-05-06 09:03 47.96346 -118.96053 11012 ft 156 kts 109°
2026-05-06 09:03 47.95883 -118.94577 11012 ft 158 kts 109°
2026-05-06 09:04 47.95433 -118.93088 11007 ft 158 kts 108°
2026-05-06 09:04 47.94992 -118.91594 11005 ft 158 kts 108°
2026-05-06 09:04 47.94550 -118.90103 11005 ft 157 kts 108°
2026-05-06 09:04 47.94108 -118.88614 11008 ft 158 kts 108°
2026-05-06 09:05 47.93705 -118.87253 11011 ft 159 kts 108°
2026-05-06 09:05 47.93256 -118.85737 11009 ft 161 kts 109°
2026-05-06 09:05 47.92803 -118.84214 11010 ft 161 kts 109°
2026-05-06 09:05 47.92350 -118.82686 11007 ft 162 kts 109°
2026-05-06 09:06 47.91898 -118.81161 11010 ft 160 kts 109°
2026-05-06 09:06 47.91449 -118.79650 11009 ft 159 kts 109°
2026-05-06 09:06 47.91002 -118.78144 11007 ft 159 kts 108°
2026-05-06 09:06 47.90560 -118.76648 11007 ft 158 kts 108°
2026-05-06 09:07 47.90115 -118.75147 11003 ft 159 kts 108°
2026-05-06 09:07 47.89667 -118.73637 11006 ft 160 kts 109°
2026-05-06 09:07 47.89215 -118.72113 11005 ft 162 kts 108°
2026-05-06 09:07 47.88759 -118.70581 11006 ft 162 kts 108°
2026-05-06 09:08 47.88302 -118.69048 11008 ft 163 kts 108°
2026-05-06 09:08 47.87845 -118.67511 11010 ft 162 kts 108°
2026-05-06 09:08 47.87391 -118.65982 11009 ft 161 kts 108°
2026-05-06 09:08 47.86938 -118.64458 11008 ft 162 kts 108°
2026-05-06 09:09 47.86484 -118.62938 11007 ft 161 kts 108°
2026-05-06 09:09 47.86033 -118.61421 11018 ft 160 kts 108°
2026-05-06 09:09 47.85580 -118.59893 11004 ft 162 kts 108°
2026-05-06 09:09 47.85125 -118.58361 11007 ft 162 kts 108°
2026-05-06 09:10 47.84669 -118.56830 11009 ft 162 kts 108°
2026-05-06 09:10 47.84216 -118.55306 11012 ft 162 kts 108°
2026-05-06 09:10 47.83760 -118.53778 11011 ft 162 kts 108°
2026-05-06 09:10 47.83308 -118.52254 11009 ft 161 kts 108°
2026-05-06 09:11 47.82852 -118.50730 11005 ft 161 kts 108°
2026-05-06 09:11 47.82398 -118.49206 11010 ft 162 kts 108°
2026-05-06 09:11 47.81981 -118.47807 11011 ft 162 kts 108°
2026-05-06 09:11 47.81524 -118.46273 11013 ft 163 kts 108°
2026-05-06 09:12 47.81068 -118.44742 11014 ft 162 kts 108°
2026-05-06 09:12 47.80611 -118.43209 11012 ft 162 kts 108°
2026-05-06 09:12 47.80152 -118.41673 11005 ft 163 kts 108°
2026-05-06 09:12 47.79694 -118.40136 11006 ft 163 kts 108°
2026-05-06 09:13 47.79236 -118.38598 11009 ft 163 kts 108°
2026-05-06 09:13 47.78775 -118.37060 11011 ft 164 kts 108°
2026-05-06 09:13 47.78316 -118.35515 11005 ft 164 kts 108°
2026-05-06 09:13 47.77848 -118.33938 10889 ft 171 kts 108°
2026-05-06 09:14 47.77355 -118.32289 10757 ft 178 kts 109°
2026-05-06 09:14 47.76847 -118.30589 10620 ft 182 kts 109°
2026-05-06 09:14 47.76328 -118.28860 10489 ft 184 kts 109°
2026-05-06 09:14 47.75809 -118.27120 10355 ft 186 kts 109°
2026-05-06 09:15 47.75283 -118.25359 10221 ft 187 kts 110°
2026-05-06 09:15 47.74755 -118.23592 10077 ft 188 kts 110°
2026-05-06 09:15 47.74229 -118.21823 9939 ft 188 kts 110°
2026-05-06 09:15 47.73699 -118.20048 9800 ft 188 kts 110°
2026-05-06 09:16 47.73168 -118.18278 9651 ft 188 kts 109°
2026-05-06 09:16 47.72639 -118.16512 9495 ft 187 kts 110°
2026-05-06 09:16 47.72111 -118.14746 9345 ft 187 kts 110°
2026-05-06 09:16 47.71586 -118.12982 9165 ft 187 kts 109°
2026-05-06 09:17 47.71055 -118.11196 8942 ft 192 kts 110°
2026-05-06 09:17 47.70506 -118.09383 8691 ft 194 kts 109°
2026-05-06 09:17 47.69958 -118.07548 8446 ft 196 kts 109°
2026-05-06 09:17 47.69409 -118.05704 8202 ft 195 kts 111°
2026-05-06 09:18 47.68856 -118.03866 7967 ft 195 kts 110°
2026-05-06 09:18 47.68299 -118.02023 7721 ft 197 kts 109°
2026-05-06 09:18 47.67747 -118.00179 7478 ft 196 kts 109°
2026-05-06 09:18 47.67196 -117.98336 7245 ft 196 kts 111°
2026-05-06 09:19 47.66647 -117.96504 7012 ft 194 kts 111°
2026-05-06 09:19 47.66103 -117.94687 6770 ft 192 kts 111°
2026-05-06 09:19 47.65565 -117.92892 6543 ft 191 kts 111°
2026-05-06 09:19 47.65023 -117.91099 6300 ft 191 kts 110°
2026-05-06 09:20 47.64494 -117.89331 6056 ft 183 kts 111°
2026-05-06 09:20 47.63997 -117.87661 5808 ft 174 kts 112°
2026-05-06 09:20 47.63519 -117.86051 5547 ft 168 kts 111°
2026-05-06 09:20 47.63052 -117.84509 5294 ft 157 kts 112°
2026-05-06 09:21 47.62629 -117.83106 5039 ft 141 kts 112°
2026-05-06 09:21 47.62248 -117.81843 4770 ft 128 kts 112°
2026-05-06 09:21 47.61903 -117.80697 4490 ft 118 kts 111°
2026-05-06 09:21 47.61587 -117.79641 4307 ft 106 kts 112°
2026-05-06 09:22 47.61246 -117.78705 4219 ft 105 kts 116°
2026-05-06 09:22 47.60862 -117.77780 4159 ft 105 kts 115°
2026-05-06 09:22 47.60527 -117.76832 4069 ft 104 kts 111°
2026-05-06 09:22 47.60238 -117.75849 3992 ft 103 kts 109°
2026-05-06 09:23 47.60004 -117.74878 4026 ft 98 kts 105°
2026-05-06 09:23 47.59786 -117.73934 4035 ft 97 kts 107°
2026-05-06 09:23 47.59540 -117.73017 4030 ft 95 kts 108°
2026-05-06 09:23 47.59298 -117.72121 4045 ft 93 kts 108°
2026-05-06 09:24 47.59047 -117.71257 4069 ft 90 kts 108°
2026-05-06 09:24 47.58806 -117.70405 4082 ft 90 kts 107°
2026-05-06 09:24 47.58594 -117.69523 4092 ft 92 kts 104°
2026-05-06 09:24 47.58383 -117.68638 4117 ft 91 kts 110°
2026-05-06 09:25 47.58060 -117.67823 4137 ft 94 kts 120°
2026-05-06 09:25 47.57684 -117.67043 4185 ft 92 kts 116°
2026-05-06 09:25 47.57388 -117.66167 4184 ft 98 kts 110°
2026-05-06 09:25 47.57147 -117.65214 4179 ft 99 kts 103°
2026-05-06 09:26 47.57084 -117.64231 4174 ft 95 kts 78°
2026-05-06 09:26 47.57466 -117.63432 4079 ft 98 kts 44°
2026-05-06 09:26 47.58040 -117.62924 3998 ft 95 kts 33°
2026-05-06 09:26 47.58631 -117.62479 3819 ft 97 kts 33°
2026-05-06 09:27 47.59227 -117.62016 3702 ft 95 kts 35°
2026-05-06 09:27 47.59804 -117.61490 3496 ft 99 kts 38°
2026-05-06 09:27 47.60347 -117.60946 3402 ft 92 kts 39°
2026-05-06 09:27 47.60890 -117.60413 3300 ft 96 kts 38°
2026-05-06 09:28 47.61400 -117.59748 3184 ft 99 kts 55°
2026-05-06 09:28 47.61645 -117.58840 2995 ft 93 kts 82°
2026-05-06 09:28 47.61694 -117.57946 2814 ft 82 kts 92°
2026-05-06 09:28 47.61689 -117.57164 2691 ft 70 kts 90°
2026-05-06 09:29 47.61695 -117.56436 2579 ft 73 kts 88°
2026-05-06 09:29 47.61695 -117.55667 2432 ft 74 kts 90°
2026-05-06 09:29 47.61694 -117.54983 2367 ft 56 kts 91°
2026-05-06 09:29 47.61693 -117.54553 2367 ft 17 kts 89°
2026-05-06 09:30 47.61694 -117.54441 2368 ft 6 kts 89°
2026-05-06 09:30 47.61704 -117.54374 2368 ft 8 kts 61°
2026-05-06 09:30 47.61743 -117.54309 2368 ft 8 kts 44°
2026-05-06 09:30 47.61768 -117.54272 2367 ft 1 kts 45°
2026-05-06 09:33 47.61781 -117.54252 2367 ft 7 kts 46°
2026-05-06 09:33 47.61816 -117.54165 2367 ft 11 kts 87°
2026-05-06 09:33 47.61815 -117.54045 2367 ft 13 kts 88°
2026-05-06 09:33 47.61814 -117.53893 2368 ft 16 kts 91°
2026-05-06 09:34 47.61811 -117.53721 2367 ft 17 kts 93°
2026-05-06 09:34 47.61805 -117.53542 2366 ft 17 kts 93°
2026-05-06 09:34 47.61798 -117.53368 2366 ft 17 kts 94°
2026-05-06 09:34 47.61794 -117.53194 2365 ft 17 kts 90°
2026-05-06 09:35 47.61794 -117.53021 2365 ft 17 kts 91°
2026-05-06 09:35 47.61793 -117.52851 2365 ft 16 kts 91°
2026-05-06 09:35 47.61791 -117.52685 2365 ft 16 kts 91°
2026-05-06 09:35 47.61790 -117.52526 2366 ft 13 kts 91°
2026-05-06 09:36 47.61804 -117.52435 2365 ft 7 kts 13°
2026-05-06 09:36 47.61853 -117.52435 2365 ft 9 kts 358°
2026-05-06 09:36 47.61880 -117.52385 2365 ft 5 kts 100°
2026-05-06 09:36 47.61867 -117.52421 2365 ft 12 kts 306°
2026-05-06 09:37 47.61908 -117.52413 2365 ft 3 kts 87°
2026-05-06 09:37 47.61908 -117.52392 2365 ft 4 kts 92°
2026-05-06 09:37 47.61907 -117.52375 2365 ft 0 kts 91°
2026-05-06 09:37 47.61907 -117.52359 2365 ft 0 kts 95°